| Back to River Map | <<< Previous Forecast Point | | | Next Forecast Point >>> | Printer Version | Graph Version |  |
|
WALKER RIVER - MASON AT SNYDER LANE (MASN2)
| Latitude: 38.92º N | Longitude: 119.19º W | Elevation: 4420 Feet | | Forecast Type: Official Location |
| Location: Lyon County in Nevada | Bulletin Group: Eastern Sierra | River Group: Eastern Sierra |
| Issuance Time: | Sep 06 2026 at 6:57 AM PDT | Next Issuance: | Sep 07 2026 at 9:00 AM PDT
| |
| Action: 9.0 Feet | Minor Flood: 9.8 Feet | Moderate Flood: 11.0 Feet | Major Flood: 11.6 Feet |
# Tabular Observed and Forecast Hydrograph Information
#
# Location: Walker River - Mason at Snyder Lane (MASN2)
#
# File Generation Time: 09/06/2026 at 06:57 AM PDT
# Data Interval: 1 Hour
#
# Most Recent Date & Time of Maximum Observed: 09/06/2026 at 06:00 AM PDT
# Maximum Observed Stage: 4.23 Feet
# Maximum Observed Flow: 178 cfs
#
# Earliest Date & Time of Maximum Forecast: 09/10/2026 at 06:00 PM PDT
# Maximum Forecast Stage: 4.33 Feet
# Maximum Forecast Flow: 196 cfs
#
# OBSERVED
#
# Date & Time (Local) Stage (Feet) Flow (cfs) Trend Observed Status
# ---------------------------------------------------------------------------------
09/01/2026 06 AM PDT 4.12 160 Normal
09/01/2026 07 AM PDT 4.12 160 0 Normal
09/01/2026 08 AM PDT 4.12 160 0 Normal
09/01/2026 09 AM PDT 4.11 159 - Normal
09/01/2026 10 AM PDT 4.12 160 + Normal
09/01/2026 11 AM PDT 4.12 160 0 Normal
09/01/2026 12 PM PDT 4.13 162 + Normal
09/01/2026 01 PM PDT 4.14 163 + Normal
09/01/2026 02 PM PDT 4.15 165 + Normal
09/01/2026 03 PM PDT 4.16 167 + Normal
09/01/2026 04 PM PDT 4.17 168 + Normal
09/01/2026 05 PM PDT 4.16 167 - Normal
09/01/2026 06 PM PDT 4.15 165 - Normal
09/01/2026 07 PM PDT 4.16 167 + Normal
09/01/2026 08 PM PDT 4.15 165 - Normal
09/01/2026 09 PM PDT 4.14 163 - Normal
09/01/2026 10 PM PDT 4.15 165 + Normal
09/01/2026 11 PM PDT 4.15 165 0 Normal
09/02/2026 12 AM PDT 4.16 167 + Normal
09/02/2026 01 AM PDT 4.16 167 0 Normal
09/02/2026 02 AM PDT 4.15 165 - Normal
09/02/2026 03 AM PDT 4.15 165 0 Normal
09/02/2026 04 AM PDT 4.14 163 - Normal
09/02/2026 05 AM PDT 4.14 163 0 Normal
09/02/2026 06 AM PDT 4.14 163 0 Normal
09/02/2026 07 AM PDT 4.13 162 - Normal
09/02/2026 08 AM PDT 4.14 163 + Normal
09/02/2026 09 AM PDT 4.14 163 0 Normal
09/02/2026 10 AM PDT 4.14 163 0 Normal
09/02/2026 11 AM PDT 4.14 163 0 Normal
09/02/2026 12 PM PDT 4.15 165 + Normal
09/02/2026 01 PM PDT 4.16 167 + Normal
09/02/2026 02 PM PDT 4.16 167 0 Normal
09/02/2026 03 PM PDT 4.16 167 0 Normal
09/02/2026 04 PM PDT 4.17 168 + Normal
09/02/2026 05 PM PDT 4.17 168 0 Normal
09/02/2026 06 PM PDT 4.17 168 0 Normal
09/02/2026 07 PM PDT 4.16 167 - Normal
09/02/2026 08 PM PDT 4.15 165 - Normal
09/02/2026 09 PM PDT 4.16 167 + Normal
09/02/2026 10 PM PDT 4.16 167 0 Normal
09/02/2026 11 PM PDT 4.16 167 0 Normal
09/03/2026 12 AM PDT 4.16 167 0 Normal
09/03/2026 01 AM PDT 4.16 167 0 Normal
09/03/2026 02 AM PDT 4.16 167 0 Normal
09/03/2026 03 AM PDT 4.16 167 0 Normal
09/03/2026 04 AM PDT 4.16 167 0 Normal
09/03/2026 05 AM PDT 4.16 167 0 Normal
09/03/2026 06 AM PDT 4.16 167 0 Normal
09/03/2026 07 AM PDT 4.16 167 0 Normal
09/03/2026 08 AM PDT 4.16 167 0 Normal
09/03/2026 09 AM PDT 4.16 167 0 Normal
09/03/2026 10 AM PDT 4.15 165 - Normal
09/03/2026 11 AM PDT 4.16 167 + Normal
09/03/2026 12 PM PDT 4.15 165 - Normal
09/03/2026 01 PM PDT 4.16 167 + Normal
09/03/2026 02 PM PDT 4.17 168 + Normal
09/03/2026 03 PM PDT 4.17 168 0 Normal
09/03/2026 04 PM PDT 4.16 167 - Normal
09/03/2026 05 PM PDT 4.16 167 0 Normal
09/03/2026 06 PM PDT 4.15 165 - Normal
09/03/2026 07 PM PDT 4.16 167 + Normal
09/03/2026 08 PM PDT 4.16 167 0 Normal
09/03/2026 09 PM PDT 4.15 165 - Normal
09/03/2026 10 PM PDT 4.16 167 + Normal
09/03/2026 11 PM PDT 4.16 167 0 Normal
09/04/2026 12 AM PDT 4.15 165 - Normal
09/04/2026 01 AM PDT 4.16 167 + Normal
09/04/2026 02 AM PDT 4.16 167 0 Normal
09/04/2026 03 AM PDT 4.16 167 0 Normal
09/04/2026 04 AM PDT 4.17 168 + Normal
09/04/2026 05 AM PDT 4.17 168 0 Normal
09/04/2026 06 AM PDT 4.18 170 + Normal
09/04/2026 07 AM PDT 4.17 168 - Normal
09/04/2026 08 AM PDT 4.17 168 0 Normal
09/04/2026 09 AM PDT 4.17 168 0 Normal
09/04/2026 10 AM PDT 4.17 168 0 Normal
09/04/2026 11 AM PDT 4.16 167 - Normal
09/04/2026 12 PM PDT 4.15 165 - Normal
09/04/2026 01 PM PDT 4.13 162 - Normal
09/04/2026 02 PM PDT 4.13 162 0 Normal
09/04/2026 03 PM PDT 4.12 160 - Normal
09/04/2026 04 PM PDT 4.13 162 + Normal
09/04/2026 05 PM PDT 4.12 160 - Normal
09/04/2026 06 PM PDT 4.13 162 + Normal
09/04/2026 07 PM PDT 4.13 162 0 Normal
09/04/2026 08 PM PDT 4.12 160 - Normal
09/04/2026 09 PM PDT 4.13 162 + Normal
09/04/2026 10 PM PDT 4.14 163 + Normal
09/04/2026 11 PM PDT 4.13 162 - Normal
09/05/2026 12 AM PDT 4.14 163 + Normal
09/05/2026 01 AM PDT 4.13 162 - Normal
09/05/2026 02 AM PDT 4.13 162 0 Normal
09/05/2026 03 AM PDT 4.13 162 0 Normal
09/05/2026 04 AM PDT 4.13 162 0 Normal
09/05/2026 05 AM PDT 4.12 160 - Normal
09/05/2026 06 AM PDT 4.13 162 + Normal
09/05/2026 07 AM PDT 4.13 162 0 Normal
09/05/2026 08 AM PDT 4.13 162 0 Normal
09/05/2026 09 AM PDT 4.13 162 0 Normal
09/05/2026 10 AM PDT 4.12 160 - Normal
09/05/2026 11 AM PDT 4.13 162 + Normal
09/05/2026 12 PM PDT 4.15 165 + Normal
09/05/2026 01 PM PDT 4.16 167 + Normal
09/05/2026 02 PM PDT 4.16 167 0 Normal
09/05/2026 03 PM PDT 4.16 167 0 Normal
09/05/2026 04 PM PDT 4.16 167 0 Normal
09/05/2026 05 PM PDT 4.16 167 0 Normal
09/05/2026 06 PM PDT 4.16 167 0 Normal
09/05/2026 07 PM PDT 4.16 167 0 Normal
09/05/2026 08 PM PDT 4.17 168 + Normal
09/05/2026 09 PM PDT 4.17 168 0 Normal
09/05/2026 10 PM PDT 4.17 168 0 Normal
09/05/2026 11 PM PDT 4.17 168 0 Normal
09/06/2026 12 AM PDT 4.18 170 + Normal
09/06/2026 01 AM PDT 4.18 170 0 Normal
09/06/2026 02 AM PDT 4.19 172 + Normal
09/06/2026 03 AM PDT 4.20 173 + Normal
09/06/2026 04 AM PDT 4.21 175 + Normal
09/06/2026 05 AM PDT 4.23 178 + Normal
09/06/2026 06 AM PDT 4.23 178 0 Normal
#
# FORECAST
#
# Date & Time (Local) Stage (Feet) Flow (cfs) Trend Forecast Status
# ---------------------------------------------------------------------------------
09/06/2026 07 AM PDT 4.23 178 Normal
09/06/2026 08 AM PDT 4.24 180 + Normal
09/06/2026 09 AM PDT 4.24 180 0 Normal
09/06/2026 10 AM PDT 4.25 182 + Normal
09/06/2026 11 AM PDT 4.25 182 0 Normal
09/06/2026 12 PM PDT 4.25 182 0 Normal
09/06/2026 01 PM PDT 4.25 182 0 Normal
09/06/2026 02 PM PDT 4.25 182 0 Normal
09/06/2026 03 PM PDT 4.26 183 + Normal
09/06/2026 04 PM PDT 4.26 183 0 Normal
09/06/2026 05 PM PDT 4.26 183 0 Normal
09/06/2026 06 PM PDT 4.27 185 + Normal
09/06/2026 07 PM PDT 4.27 185 0 Normal
09/06/2026 08 PM PDT 4.27 185 0 Normal
09/06/2026 09 PM PDT 4.27 185 0 Normal
09/06/2026 10 PM PDT 4.28 187 + Normal
09/06/2026 11 PM PDT 4.28 187 0 Normal
09/07/2026 12 AM PDT 4.28 187 0 Normal
09/07/2026 01 AM PDT 4.28 187 0 Normal
09/07/2026 02 AM PDT 4.28 187 0 Normal
09/07/2026 03 AM PDT 4.28 187 0 Normal
09/07/2026 04 AM PDT 4.28 187 0 Normal
09/07/2026 05 AM PDT 4.28 187 0 Normal
09/07/2026 06 AM PDT 4.29 189 + Normal
09/07/2026 07 AM PDT 4.29 189 0 Normal
09/07/2026 08 AM PDT 4.29 189 0 Normal
09/07/2026 09 AM PDT 4.29 189 0 Normal
09/07/2026 10 AM PDT 4.29 189 0 Normal
09/07/2026 11 AM PDT 4.29 189 0 Normal
09/07/2026 12 PM PDT 4.29 189 0 Normal
09/07/2026 01 PM PDT 4.29 189 0 Normal
09/07/2026 02 PM PDT 4.29 189 0 Normal
09/07/2026 03 PM PDT 4.29 189 0 Normal
09/07/2026 04 PM PDT 4.29 189 0 Normal
09/07/2026 05 PM PDT 4.29 189 0 Normal
09/07/2026 06 PM PDT 4.29 189 0 Normal
09/07/2026 07 PM PDT 4.29 189 0 Normal
09/07/2026 08 PM PDT 4.29 189 0 Normal
09/07/2026 09 PM PDT 4.30 190 + Normal
09/07/2026 10 PM PDT 4.30 190 0 Normal
09/07/2026 11 PM PDT 4.30 190 0 Normal
09/08/2026 12 AM PDT 4.30 190 0 Normal
09/08/2026 01 AM PDT 4.30 190 0 Normal
09/08/2026 02 AM PDT 4.30 190 0 Normal
09/08/2026 03 AM PDT 4.30 190 0 Normal
09/08/2026 04 AM PDT 4.30 190 0 Normal
09/08/2026 05 AM PDT 4.30 190 0 Normal
09/08/2026 06 AM PDT 4.30 190 0 Normal
09/08/2026 07 AM PDT 4.30 190 0 Normal
09/08/2026 08 AM PDT 4.30 190 0 Normal
09/08/2026 09 AM PDT 4.30 190 0 Normal
09/08/2026 10 AM PDT 4.30 190 0 Normal
09/08/2026 11 AM PDT 4.30 190 0 Normal
09/08/2026 12 PM PDT 4.30 190 0 Normal
09/08/2026 01 PM PDT 4.30 190 0 Normal
09/08/2026 02 PM PDT 4.30 190 0 Normal
09/08/2026 03 PM PDT 4.30 190 0 Normal
09/08/2026 04 PM PDT 4.30 190 0 Normal
09/08/2026 05 PM PDT 4.30 190 0 Normal
09/08/2026 06 PM PDT 4.31 192 + Normal
09/08/2026 07 PM PDT 4.31 192 0 Normal
09/08/2026 08 PM PDT 4.31 192 0 Normal
09/08/2026 09 PM PDT 4.31 192 0 Normal
09/08/2026 10 PM PDT 4.31 192 0 Normal
09/08/2026 11 PM PDT 4.31 192 0 Normal
09/09/2026 12 AM PDT 4.31 192 0 Normal
09/09/2026 01 AM PDT 4.31 192 0 Normal
09/09/2026 02 AM PDT 4.31 192 0 Normal
09/09/2026 03 AM PDT 4.31 192 0 Normal
09/09/2026 04 AM PDT 4.31 192 0 Normal
09/09/2026 05 AM PDT 4.31 192 0 Normal
09/09/2026 06 AM PDT 4.31 192 0 Normal
09/09/2026 07 AM PDT 4.31 192 0 Normal
09/09/2026 08 AM PDT 4.31 192 0 Normal
09/09/2026 09 AM PDT 4.31 192 0 Normal
09/09/2026 10 AM PDT 4.31 192 0 Normal
09/09/2026 11 AM PDT 4.31 192 0 Normal
09/09/2026 12 PM PDT 4.31 192 0 Normal
09/09/2026 01 PM PDT 4.31 192 0 Normal
09/09/2026 02 PM PDT 4.31 192 0 Normal
09/09/2026 03 PM PDT 4.31 192 0 Normal
09/09/2026 04 PM PDT 4.31 192 0 Normal
09/09/2026 05 PM PDT 4.31 192 0 Normal
09/09/2026 06 PM PDT 4.32 194 + Normal
09/09/2026 07 PM PDT 4.32 194 0 Normal
09/09/2026 08 PM PDT 4.32 194 0 Normal
09/09/2026 09 PM PDT 4.32 194 0 Normal
09/09/2026 10 PM PDT 4.32 194 0 Normal
09/09/2026 11 PM PDT 4.32 194 0 Normal
09/10/2026 12 AM PDT 4.32 194 0 Normal
09/10/2026 01 AM PDT 4.32 194 0 Normal
09/10/2026 02 AM PDT 4.32 194 0 Normal
09/10/2026 03 AM PDT 4.32 194 0 Normal
09/10/2026 04 AM PDT 4.32 194 0 Normal
09/10/2026 05 AM PDT 4.32 194 0 Normal
09/10/2026 06 AM PDT 4.32 194 0 Normal
09/10/2026 07 AM PDT 4.32 194 0 Normal
09/10/2026 08 AM PDT 4.32 194 0 Normal
09/10/2026 09 AM PDT 4.32 194 0 Normal
09/10/2026 10 AM PDT 4.32 194 0 Normal
09/10/2026 11 AM PDT 4.32 194 0 Normal
09/10/2026 12 PM PDT 4.32 194 0 Normal
09/10/2026 01 PM PDT 4.32 194 0 Normal
09/10/2026 02 PM PDT 4.32 194 0 Normal
09/10/2026 03 PM PDT 4.32 194 0 Normal
09/10/2026 04 PM PDT 4.32 194 0 Normal
09/10/2026 05 PM PDT 4.32 194 0 Normal
09/10/2026 06 PM PDT 4.33 196 + Normal
09/10/2026 07 PM PDT 4.33 196 0 Normal
09/10/2026 08 PM PDT 4.33 196 0 Normal
09/10/2026 09 PM PDT 4.33 196 0 Normal
09/10/2026 10 PM PDT 4.33 196 0 Normal
09/10/2026 11 PM PDT 4.33 196 0 Normal
09/11/2026 12 AM PDT 4.33 196 0 Normal
09/11/2026 01 AM PDT 4.33 196 0 Normal
09/11/2026 02 AM PDT 4.33 196 0 Normal
09/11/2026 03 AM PDT 4.33 196 0 Normal
09/11/2026 04 AM PDT 4.33 196 0 Normal
09/11/2026 05 AM PDT 4.33 196 0 Normal
#
# NOTE 1: Stages are rounded to the nearest hundredth (.01) of a foot.
# NOTE 2: Flows are rounded to the nearest (1) cfs.
# NOTE 3: Trends are determined using hourly change in unrounded stage and flow.
# NOTE 4: Maximum Values are determined using unrounded stage and flow.
|